Home > Products > Valid Products > MTR

000
SAGM31 PGUM 210655
MTRGUM
METAR PGUM 210654Z 05009KT 10SM CLR 29/23 A2980 RMK AO2 SLP083 P0001
T02940228




000
SAGM31 PGUM 210655
MTRGUM
METAR PGUM 210654Z 05009KT 10SM CLR 29/23 A2980 RMK AO2 SLP083 P0001
T02940228





000
SAGM31 PGUM 210555
MTRGUM
METAR PGUM 210554Z 05009KT 10SM FEW030 31/22 A2979 RMK AO2 SLP081
60002 T03060222 10322 20278 55008




000
SAGM31 PGUM 210455
MTRGUM
METAR PGUM 210454Z 05007KT 10SM BKN033 BKN041 BKN050 31/23 A2979 RMK
AO2 SLP080 T03060228





000
SAGM31 PGUM 210455
MTRGUM
METAR PGUM 210454Z 05007KT 10SM BKN033 BKN041 BKN050 31/23 A2979 RMK
AO2 SLP080 T03060228





000
SAGM31 PGUM 210455
MTRGUM
METAR PGUM 210454Z 05007KT 10SM BKN033 BKN041 BKN050 31/23 A2979 RMK
AO2 SLP080 T03060228




000
SAGM31 PGUM 210455
MTRGUM
METAR PGUM 210454Z 05007KT 10SM BKN033 BKN041 BKN050 31/23 A2979 RMK
AO2 SLP080 T03060228




000
SAGM31 PGUM 210355
MTRGUM
METAR PGUM 210354Z 05007KT 10SM SCT033 BKN044 31/23 A2980 RMK AO2
SLP081 T03110233





000
SAGM31 PGUM 210355
MTRGUM
METAR PGUM 210354Z 05007KT 10SM SCT033 BKN044 31/23 A2980 RMK AO2
SLP081 T03110233




000
SAGM31 PGUM 210355
MTRGUM
METAR PGUM 210354Z 05007KT 10SM SCT033 BKN044 31/23 A2980 RMK AO2
SLP081 T03110233




000
SAGM31 PGUM 210355
MTRGUM
METAR PGUM 210354Z 05007KT 10SM SCT033 BKN044 31/23 A2980 RMK AO2
SLP081 T03110233





000
SAGM31 PGUM 210255
MTRGUM
METAR PGUM 210254Z 04008KT 10SM SCT028 31/23 A2982 RMK AO2 RAB01E22
SLP089 P0000 60001 T03110233 58023





000
SAGM31 PGUM 210255
MTRGUM
METAR PGUM 210254Z 04008KT 10SM SCT028 31/23 A2982 RMK AO2 RAB01E22
SLP089 P0000 60001 T03110233 58023




000
SAGM31 PGUM 210255
MTRGUM
METAR PGUM 210254Z 04008KT 10SM SCT028 31/23 A2982 RMK AO2 RAB01E22
SLP089 P0000 60001 T03110233 58023




000
SAGM31 PGUM 210255
MTRGUM
METAR PGUM 210254Z 04008KT 10SM SCT028 31/23 A2982 RMK AO2 RAB01E22
SLP089 P0000 60001 T03110233 58023





000
SAGM31 PGUM 210155
MTRGUM
METAR PGUM 210154Z 04013KT 10SM FEW024 SCT031 BKN060 30/24 A2985 RMK
AO2 RAB42E51 SLP099 P0001 T03000239




000
SAGM31 PGUM 210155
MTRGUM
METAR PGUM 210154Z 04013KT 10SM FEW024 SCT031 BKN060 30/24 A2985 RMK
AO2 RAB42E51 SLP099 P0001 T03000239




000
SAGM31 PGUM 210155
MTRGUM
METAR PGUM 210154Z 04013KT 10SM FEW024 SCT031 BKN060 30/24 A2985 RMK
AO2 RAB42E51 SLP099 P0001 T03000239





000
SAGM31 PGUM 210155
MTRGUM
METAR PGUM 210154Z 04013KT 10SM FEW024 SCT031 BKN060 30/24 A2985 RMK
AO2 RAB42E51 SLP099 P0001 T03000239





000
SAGM31 PGUM 210055
MTRGUM
METAR PGUM 210054Z VRB05KT 10SM SCT050 OVC065 30/25 A2987 RMK AO2
RAB20E48 SLP106 P0000 T03000250





000
SAGM31 PGUM 210055
MTRGUM
METAR PGUM 210054Z VRB05KT 10SM SCT050 OVC065 30/25 A2987 RMK AO2
RAB20E48 SLP106 P0000 T03000250




000
SAGM31 PGUM 202355
MTRGUM
METAR PGUM 202354Z 06007KT 10SM SCT026 31/24 A2989 RMK AO2 SLP112
60004 T03060239 10311 20250 51009




000
SAGM31 PGUM 202255
MTRGUM
METAR PGUM 202254Z 05007KT 10SM CLR 30/24 A2989 RMK AO2 SLP112 P0001
T03000244




000
SAGM31 PGUM 202255
MTRGUM
METAR PGUM 202254Z 05007KT 10SM CLR 30/24 A2989 RMK AO2 SLP112 P0001
T03000244





000
SAGM31 PGUM 202255
MTRGUM
METAR PGUM 202254Z 05007KT 10SM CLR 30/24 A2989 RMK AO2 SLP112 P0001
T03000244




000
SAGM31 PGUM 202155
MTRGUM
METAR PGUM 202154Z 03005KT 10SM CLR 29/25 A2987 RMK AO2 SLP108
T02890250




000
SAGM31 PGUM 202155
MTRGUM
METAR PGUM 202154Z 03005KT 10SM CLR 29/25 A2987 RMK AO2 SLP108
T02890250





000
SAGM31 PGUM 202155
MTRGUM
METAR PGUM 202154Z 03005KT 10SM CLR 29/25 A2987 RMK AO2 SLP108
T02890250




000
SAGM31 PGUM 202155
MTRGUM
METAR PGUM 202154Z 03005KT 10SM CLR 29/25 A2987 RMK AO2 SLP108
T02890250





000
SAGM31 PGUM 202055
MTRGUM
METAR PGUM 202054Z 05004KT 10SM CLR 27/24 A2986 RMK AO2 RAE05 SLP103
P0000 60003 T02670244 53013




000
SAGM31 PGUM 202055
MTRGUM
METAR PGUM 202054Z 05004KT 10SM CLR 27/24 A2986 RMK AO2 RAE05 SLP103
P0000 60003 T02670244 53013





000
SAGM31 PGUM 201955
MTRGUM
METAR PGUM 201954Z 04005KT 8SM -RA FEW037 BKN050 OVC060 26/24 A2984
RMK AO2 RAB33 SLP097 P0003 T02610244





000
SAGM31 PGUM 201955
MTRGUM
METAR PGUM 201954Z 04005KT 8SM -RA FEW037 BKN050 OVC060 26/24 A2984
RMK AO2 RAB33 SLP097 P0003 T02610244




000
SAGM31 PGUM 201855
MTRGUM
METAR PGUM 201854Z 04004KT 10SM FEW025 SCT065 26/23 A2982 RMK AO2
SLP090 T02560233





000
SAGM31 PGUM 201855
MTRGUM
METAR PGUM 201854Z 04004KT 10SM FEW025 SCT065 26/23 A2982 RMK AO2
SLP090 T02560233




000
SAGM31 PGUM 201755
MTRGUM
METAR PGUM 201754Z 05004KT 10SM CLR 26/24 A2982 RMK AO2 SLP091 60000
T02560239 10272 20256 56009




000
SAGM31 PGUM 201755
MTRGUM
METAR PGUM 201754Z 05004KT 10SM CLR 26/24 A2982 RMK AO2 SLP091 60000
T02560239 10272 20256 56009





000
SAGM31 PGUM 201655
MTRGUM
METAR PGUM 201654Z 05004KT 10SM FEW070 26/24 A2982 RMK AO2 SLP091
T02610239




000
SAGM31 PGUM 201655
MTRGUM
METAR PGUM 201654Z 05004KT 10SM FEW070 26/24 A2982 RMK AO2 SLP091
T02610239





000
SAGM31 PGUM 201555
MTRGUM
METAR PGUM 201554Z 05005KT 10SM CLR 26/24 A2983 RMK AO2 SLP092
T02610239




000
SAGM31 PGUM 201455
MTRGUM
METAR PGUM 201454Z 05005KT 10SM CLR 26/24 A2985 RMK AO2 SLP100 60000
T02610239 58007




000
SAGM31 PGUM 201455
MTRGUM
METAR PGUM 201454Z 05005KT 10SM CLR 26/24 A2985 RMK AO2 SLP100 60000
T02610239 58007





000
SAGM31 PGUM 201355
MTRGUM
METAR PGUM 201354Z 04005KT 10SM CLR 26/24 A2986 RMK AO2 SLP104
T02610239 403280250





000
SAGM31 PGUM 201355
MTRGUM
METAR PGUM 201354Z 04005KT 10SM CLR 26/24 A2986 RMK AO2 SLP104
T02610239 403280250




000
SAGM31 PGUM 201255
MTRGUM
METAR PGUM 201254Z 05004KT 10SM FEW022 27/24 A2987 RMK AO2 RAB26E37
SLP106 P0000 T02670244




000
SAGM31 PGUM 201255
MTRGUM
METAR PGUM 201254Z 05004KT 10SM FEW022 27/24 A2987 RMK AO2 RAB26E37
SLP106 P0000 T02670244





000
SAGM31 PGUM 201155
MTRGUM
METAR PGUM 201154Z 05003KT 10SM CLR 27/23 A2987 RMK AO2 SLP106
T02670233 10317 20267 51012




000
SAGM31 PGUM 201155
MTRGUM
METAR PGUM 201154Z 05003KT 10SM CLR 27/23 A2987 RMK AO2 SLP106
T02670233 10317 20267 51012





000
SAGM31 PGUM 201055
MTRGUM
METAR PGUM 201054Z 05004KT 10SM CLR 27/23 A2987 RMK AO2 SLP106
T02720233




000
SAGM31 PGUM 201055
MTRGUM
METAR PGUM 201054Z 05004KT 10SM CLR 27/23 A2987 RMK AO2 SLP106
T02720233





000
SAGM31 PGUM 201055
MTRGUM
METAR PGUM 201054Z 05004KT 10SM CLR 27/23 A2987 RMK AO2 SLP106
T02720233





000
SAGM31 PGUM 200955
MTRGUM
METAR PGUM 200954Z 04005KT 10SM CLR 27/23 A2986 RMK AO2 SLP103
T02720228




000
SAGM31 PGUM 200955
MTRGUM
METAR PGUM 200954Z 04005KT 10SM CLR 27/23 A2986 RMK AO2 SLP103
T02720228





000
SAGM31 PGUM 200955
MTRGUM
METAR PGUM 200954Z 04005KT 10SM CLR 27/23 A2986 RMK AO2 SLP103
T02720228





000
SAGM31 PGUM 200955
MTRGUM
METAR PGUM 200954Z 04005KT 10SM CLR 27/23 A2986 RMK AO2 SLP103
T02720228




000
SAGM31 PGUM 200855
MTRGUM
METAR PGUM 200854Z 04006KT 10SM CLR 28/23 A2983 RMK AO2 SLP095 60001
T02780233 53010





000
SAGM31 PGUM 200855
MTRGUM
METAR PGUM 200854Z 04006KT 10SM CLR 28/23 A2983 RMK AO2 SLP095 60001
T02780233 53010




000
SAGM31 PGUM 200755
MTRGUM
METAR PGUM 200754Z 04010KT 10SM CLR 28/23 A2982 RMK AO2 SLP089 P0001
T02830233




000
SAGM31 PGUM 200755
MTRGUM
METAR PGUM 200754Z 04010KT 10SM CLR 28/23 A2982 RMK AO2 SLP089 P0001
T02830233





000
SAGM31 PGUM 200755
MTRGUM
METAR PGUM 200754Z 04010KT 10SM CLR 28/23 A2982 RMK AO2 SLP089 P0001
T02830233





000
SAGM31 PGUM 200755
MTRGUM
METAR PGUM 200754Z 04010KT 10SM CLR 28/23 A2982 RMK AO2 SLP089 P0001
T02830233




000
SAGM31 PGUM 200655
MTRGUM
METAR PGUM 200654Z 03009KT 10SM FEW028 31/23 A2981 RMK AO2 SLP086
T03060233




000
SAGM31 PGUM 200655
MTRGUM
METAR PGUM 200654Z 03009KT 10SM FEW028 31/23 A2981 RMK AO2 SLP086
T03060233





000
SAGM31 PGUM 200555
MTRGUM
METAR PGUM 200554Z 04010KT 10SM FEW035 32/22 A2980 RMK AO2 SLP084
T03170222 10328 20300 55007




000
SAGM31 PGUM 200555
MTRGUM
METAR PGUM 200554Z 04010KT 10SM FEW035 32/22 A2980 RMK AO2 SLP084
T03170222 10328 20300 55007





000
SAGM31 PGUM 200455
MTRGUM
METAR PGUM 200454Z 05011KT 10SM CLR 32/22 A2980 RMK AO2 SLP084
T03170217




000
SAGM31 PGUM 200455
MTRGUM
METAR PGUM 200454Z 05011KT 10SM CLR 32/22 A2980 RMK AO2 SLP084
T03170217





000
SAGM31 PGUM 200355
MTRGUM
METAR PGUM 200354Z 04011KT 10SM SCT035 32/23 A2981 RMK AO2 SLP086
T03220228





000
SAGM31 PGUM 200355
MTRGUM
METAR PGUM 200354Z 04011KT 10SM SCT035 32/23 A2981 RMK AO2 SLP086
T03220228




000
SAGM31 PGUM 200255
MTRGUM
METAR PGUM 200254Z 04012G17KT 10SM CLR 32/22 A2983 RMK AO2 SLP092
60001 T03220222 58020




000
SAGM31 PGUM 200255
MTRGUM
METAR PGUM 200254Z 04012G17KT 10SM CLR 32/22 A2983 RMK AO2 SLP092
60001 T03220222 58020





000
SAGM31 PGUM 200155
MTRGUM
METAR PGUM 200154Z 03012KT 10SM SCT026 SCT034 32/23 A2985 RMK AO2
SLP098 P0001 T03220233




000
SAGM31 PGUM 200155
MTRGUM
METAR PGUM 200154Z 03012KT 10SM SCT026 SCT034 32/23 A2985 RMK AO2
SLP098 P0001 T03220233





000
SAGM31 PGUM 200055
MTRGUM
METAR PGUM 200054Z 03012KT 10SM SCT025 BKN050 31/24 A2987 RMK AO2
SLP105 T03110244




000
SAGM31 PGUM 200055
MTRGUM
METAR PGUM 200054Z 03012KT 10SM SCT025 BKN050 31/24 A2987 RMK AO2
SLP105 T03110244





000
SAGM31 PGUM 192355
MTRGUM
METAR PGUM 192354Z 05011KT 10SM FEW022 31/23 A2989 RMK AO2 SLP112
60000 T03110233 10311 20250 51004





000
SAGM31 PGUM 192355
MTRGUM
METAR PGUM 192354Z 05011KT 10SM FEW022 31/23 A2989 RMK AO2 SLP112
60000 T03110233 10311 20250 51004




000
SAGM31 PGUM 192355
MTRGUM
METAR PGUM 192354Z 05011KT 10SM FEW022 31/23 A2989 RMK AO2 SLP112
60000 T03110233 10311 20250 51004




000
SAGM31 PGUM 192355
MTRGUM
METAR PGUM 192354Z 05011KT 10SM FEW022 31/23 A2989 RMK AO2 SLP112
60000 T03110233 10311 20250 51004





000
SAGM31 PGUM 192342
MTRGUM
SPECI PGUM 192341Z 05008KT 10SM FEW021 SCT028 31/24 A2989 RMK AO2




000
SAGM31 PGUM 192342
MTRGUM
SPECI PGUM 192341Z 05008KT 10SM FEW021 SCT028 31/24 A2989 RMK AO2





000
SAGM31 PGUM 192342
MTRGUM
SPECI PGUM 192341Z 05008KT 10SM FEW021 SCT028 31/24 A2989 RMK AO2





000
SAGM31 PGUM 192342
MTRGUM
SPECI PGUM 192341Z 05008KT 10SM FEW021 SCT028 31/24 A2989 RMK AO2




000
SAGM31 PGUM 192328
MTRGUM
SPECI PGUM 192327Z 02009KT 10SM SCT021 BKN028 31/25 A2989 RMK AO2
P0001





000
SAGM31 PGUM 192328
MTRGUM
SPECI PGUM 192327Z 02009KT 10SM SCT021 BKN028 31/25 A2989 RMK AO2
P0001




000
SAGM31 PGUM 192328
MTRGUM
SPECI PGUM 192327Z 02009KT 10SM SCT021 BKN028 31/25 A2989 RMK AO2
P0001





000
SAGM31 PGUM 192328
MTRGUM
SPECI PGUM 192327Z 02009KT 10SM SCT021 BKN028 31/25 A2989 RMK AO2
P0001




000
SAGM31 PGUM 192255
MTRGUM
METAR PGUM 192254Z 04009KT 10SM FEW024 BKN055 BKN100 30/25 A2988 RMK
AO2 SLP111 T03000250





000
SAGM31 PGUM 192255
MTRGUM
METAR PGUM 192254Z 04009KT 10SM FEW024 BKN055 BKN100 30/25 A2988 RMK
AO2 SLP111 T03000250




000
SAGM31 PGUM 192255
MTRGUM
METAR PGUM 192254Z 04009KT 10SM FEW024 BKN055 BKN100 30/25 A2988 RMK
AO2 SLP111 T03000250




000
SAGM31 PGUM 192255
MTRGUM
METAR PGUM 192254Z 04009KT 10SM FEW024 BKN055 BKN100 30/25 A2988 RMK
AO2 SLP111 T03000250





000
SAGM31 PGUM 192155
MTRGUM
METAR PGUM 192154Z 01005KT 10SM SCT043 BKN055 OVC100 28/25 A2989 RMK
AO2 SLP112 T02780250




000
SAGM31 PGUM 192155
MTRGUM
METAR PGUM 192154Z 01005KT 10SM SCT043 BKN055 OVC100 28/25 A2989 RMK
AO2 SLP112 T02780250





000
SAGM31 PGUM 192055
MTRGUM
METAR PGUM 192054Z 04006KT 10SM FEW075 26/24 A2987 RMK AO2 SLP107
60000 T02560239 53014




000
SAGM31 PGUM 192055
MTRGUM
METAR PGUM 192054Z 04006KT 10SM FEW075 26/24 A2987 RMK AO2 SLP107
60000 T02560239 53014





000
SAGM31 PGUM 191955
MTRGUM
METAR PGUM 191954Z 02006KT 10SM CLR 25/23 A2985 RMK AO2 RAB07E16
SLP100 P0000 T02500233




000
SAGM31 PGUM 191955
MTRGUM
METAR PGUM 191954Z 02006KT 10SM CLR 25/23 A2985 RMK AO2 RAB07E16
SLP100 P0000 T02500233





000
SAGM31 PGUM 191855
MTRGUM
METAR PGUM 191854Z 05006KT 10SM CLR 26/24 A2983 RMK AO2 SLP094
T02610239




000
SAGM31 PGUM 191855
MTRGUM
METAR PGUM 191854Z 05006KT 10SM CLR 26/24 A2983 RMK AO2 SLP094
T02610239





000
SAGM31 PGUM 191755
MTRGUM
METAR PGUM 191754Z 05003KT 10SM CLR 26/24 A2983 RMK AO2 SLP093
T02560239 10267 20250 56006




000
SAGM31 PGUM 191755
MTRGUM
METAR PGUM 191754Z 05003KT 10SM CLR 26/24 A2983 RMK AO2 SLP093
T02560239 10267 20250 56006





000
SAGM31 PGUM 191655
MTRGUM
METAR PGUM 191654Z 00000KT 10SM CLR 26/24 A2983 RMK AO2 SLP094
T02610244





000
SAGM31 PGUM 191655
MTRGUM
METAR PGUM 191654Z 00000KT 10SM CLR 26/24 A2983 RMK AO2 SLP094
T02610244




000
SAGM31 PGUM 191555
MTRGUM
METAR PGUM 191554Z 00000KT 10SM CLR 26/24 A2984 RMK AO2 SLP095
T02560244




000
SAGM31 PGUM 191555
MTRGUM
METAR PGUM 191554Z 00000KT 10SM CLR 26/24 A2984 RMK AO2 SLP095
T02560244





000
SAGM31 PGUM 191455
MTRGUM
METAR PGUM 191454Z 00000KT 10SM CLR 26/24 A2985 RMK AO2 SLP099
T02560239 58008




000
SAGM31 PGUM 191355
MTRGUM
METAR PGUM 191354Z 06003KT 10SM CLR 27/24 A2986 RMK AO2 SLP104
T02670244 403000256




000
SAGM31 PGUM 191355
MTRGUM
METAR PGUM 191354Z 06003KT 10SM CLR 27/24 A2986 RMK AO2 SLP104
T02670244 403000256





000
SAGM31 PGUM 191255
MTRGUM
METAR PGUM 191254Z 06004KT 10SM CLR 27/25 A2987 RMK AO2 SLP105
T02670250





000
SAGM31 PGUM 191255
MTRGUM
METAR PGUM 191254Z 06004KT 10SM CLR 27/25 A2987 RMK AO2 SLP105
T02670250




000
SAGM31 PGUM 191155
MTRGUM
METAR PGUM 191154Z 00000KT 10SM FEW025 27/25 A2987 RMK AO2 SLP107
60024 70098 T02670250 10294 20261 50007





000
SAGM31 PGUM 191155
MTRGUM
METAR PGUM 191154Z 00000KT 10SM FEW025 27/25 A2987 RMK AO2 SLP107
60024 70098 T02670250 10294 20261 50007




000
SAGM31 PGUM 191055
MTRGUM
METAR PGUM 191054Z 04005KT 10SM CLR 26/24 A2987 RMK AO2 SLP108
T02610244




000
SAGM31 PGUM 191055
MTRGUM
METAR PGUM 191054Z 04005KT 10SM CLR 26/24 A2987 RMK AO2 SLP108
T02610244





000
SAGM31 PGUM 190955
MTRGUM
METAR PGUM 190954Z 06004KT 10SM CLR 27/25 A2987 RMK AO2 SLP106
T02670250




000
SAGM31 PGUM 190955
MTRGUM
METAR PGUM 190954Z 06004KT 10SM CLR 27/25 A2987 RMK AO2 SLP106
T02670250





000
SAGM31 PGUM 190955
MTRGUM
METAR PGUM 190954Z 06004KT 10SM CLR 27/25 A2987 RMK AO2 SLP106
T02670250




000
SAGM31 PGUM 190955
MTRGUM
METAR PGUM 190954Z 06004KT 10SM CLR 27/25 A2987 RMK AO2 SLP106
T02670250





000
SAGM31 PGUM 190855
MTRGUM
METAR PGUM 190854Z 07003KT 10SM FEW022 27/25 A2985 RMK AO2 SLP100
60022 T02720250 51016




000
SAGM31 PGUM 190855
MTRGUM
METAR PGUM 190854Z 07003KT 10SM FEW022 27/25 A2985 RMK AO2 SLP100
60022 T02720250 51016





000
SAGM31 PGUM 190755
MTRGUM
METAR PGUM 190754Z 00000KT 10SM SCT022 BKN048 27/25 A2984 RMK AO2
RAB04E20 SLP095 P0003 T02720250





000
SAGM31 PGUM 190755
MTRGUM
METAR PGUM 190754Z 00000KT 10SM SCT022 BKN048 27/25 A2984 RMK AO2
RAB04E20 SLP095 P0003 T02720250




000
SAGM31 PGUM 190724
MTRGUM
SPECI PGUM 190723Z 00000KT 10SM FEW020 SCT040 BKN055 28/25 A2983 RMK
AO2 RAB04E20 P0003





000
SAGM31 PGUM 190724
MTRGUM
SPECI PGUM 190723Z 00000KT 10SM FEW020 SCT040 BKN055 28/25 A2983 RMK
AO2 RAB04E20 P0003




000
SAGM31 PGUM 190655
MTRGUM
METAR PGUM 190654Z 22004KT 10SM SCT019 BKN028 BKN033 27/25 A2982 RMK
AO2 RAB33E52 SLP091 P0019 T02720250




000
SAGM31 PGUM 190655
MTRGUM
METAR PGUM 190654Z 22004KT 10SM SCT019 BKN028 BKN033 27/25 A2982 RMK
AO2 RAB33E52 SLP091 P0019 T02720250





000
SAGM31 PGUM 190642
MTRGUM
SPECI PGUM 190641Z 22007KT 180V360 3SM +RA FEW012 BKN019 BKN026
28/24 A2982 RMK AO2 RAB33 P0018




000
SAGM31 PGUM 190642
MTRGUM
SPECI PGUM 190641Z 22007KT 180V360 3SM +RA FEW012 BKN019 BKN026
28/24 A2982 RMK AO2 RAB33 P0018





000
SAGM31 PGUM 190639
MTRGUM
SPECI PGUM 190638Z VRB04KT 3/4SM +RA FEW012 BKN019 BKN026 28/25
A2982 RMK AO2 RAB33 P0002





000
SAGM31 PGUM 190639
MTRGUM
SPECI PGUM 190638Z VRB04KT 3/4SM +RA FEW012 BKN019 BKN026 28/25
A2982 RMK AO2 RAB33 P0002




000
SAGM31 PGUM 190631
MTRGUM
SPECI PGUM 190630Z 00000KT 10SM BKN021 BKN029 29/26 A2982 RMK AO2




000
SAGM31 PGUM 190631
MTRGUM
SPECI PGUM 190630Z 00000KT 10SM BKN021 BKN029 29/26 A2982 RMK AO2





000
SAGM31 PGUM 190610
MTRGUM
SPECI PGUM 190609Z 35003KT 10SM SCT022 SCT028 BKN034 29/25 A2981 RMK
AO2




000
SAGM31 PGUM 190610
MTRGUM
SPECI PGUM 190609Z 35003KT 10SM SCT022 SCT028 BKN034 29/25 A2981 RMK
AO2





000
SAGM31 PGUM 190602
MTRGUM
SPECI PGUM 190601Z 03004KT 10SM SCT020 BKN026 BKN031 29/25 A2981 RMK
AO2




000
SAGM31 PGUM 190602
MTRGUM
SPECI PGUM 190601Z 03004KT 10SM SCT020 BKN026 BKN031 29/25 A2981 RMK
AO2





000
SAGM31 PGUM 190555
MTRGUM
METAR PGUM 190554Z 06005KT 10SM FEW018 SCT024 BKN042 29/26 A2981 RMK
AO2 SLP085 60074 T02940256 10300 20256 56012





000
SAGM31 PGUM 190555
MTRGUM
METAR PGUM 190554Z 06005KT 10SM FEW018 SCT024 BKN042 29/26 A2981 RMK
AO2 SLP085 60074 T02940256 10300 20256 56012




000
SAGM31 PGUM 190455
MTRGUM
METAR PGUM 190454Z 00000KT 10SM SCT026 BKN039 OVC065 29/25 A2981 RMK
AO2 RAB02E43 SLP087 P0005 T02940250





000
SAGM31 PGUM 190455
MTRGUM
METAR PGUM 190454Z 00000KT 10SM SCT026 BKN039 OVC065 29/25 A2981 RMK
AO2 RAB02E43 SLP087 P0005 T02940250




000
SAGM31 PGUM 190455
MTRGUM
METAR PGUM 190454Z 00000KT 10SM SCT026 BKN039 OVC065 29/25 A2981 RMK
AO2 RAB02E43 SLP087 P0005 T02940250





000
SAGM31 PGUM 190455
MTRGUM
METAR PGUM 190454Z 00000KT 10SM SCT026 BKN039 OVC065 29/25 A2981 RMK
AO2 RAB02E43 SLP087 P0005 T02940250




000
SAGM31 PGUM 190428
MTRGUM
SPECI PGUM 190427Z 00000KT 5SM -RA BR SCT023 BKN038 OVC048 27/26
A2982 RMK AO2 RAB02 P0004




000
SAGM31 PGUM 190428
MTRGUM
SPECI PGUM 190427Z 00000KT 5SM -RA BR SCT023 BKN038 OVC048 27/26
A2982 RMK AO2 RAB02 P0004





000
SAGM31 PGUM 190355
MTRGUM
METAR PGUM 190354Z 00000KT 10SM SCT018 BKN025 BKN060 27/26 A2982 RMK
AO2 RAE40 SLP091 P0010 T02720256




000
SAGM31 PGUM 190355
MTRGUM
METAR PGUM 190354Z 00000KT 10SM SCT018 BKN025 BKN060 27/26 A2982 RMK
AO2 RAE40 SLP091 P0010 T02720256





000
SAGM31 PGUM 190355
MTRGUM
METAR PGUM 190354Z 00000KT 10SM SCT018 BKN025 BKN060 27/26 A2982 RMK
AO2 RAE40 SLP091 P0010 T02720256




000
SAGM31 PGUM 190355
MTRGUM
METAR PGUM 190354Z 00000KT 10SM SCT018 BKN025 BKN060 27/26 A2982 RMK
AO2 RAE40 SLP091 P0010 T02720256





000
SAGM31 PGUM 190326
MTRGUM
SPECI PGUM 190325Z 14004KT 9SM -RA SCT041 OVC055 27/24 A2983 RMK AO2
P0010





000
SAGM31 PGUM 190326
MTRGUM
SPECI PGUM 190325Z 14004KT 9SM -RA SCT041 OVC055 27/24 A2983 RMK AO2
P0010




000
SAGM31 PGUM 190326
MTRGUM
SPECI PGUM 190325Z 14004KT 9SM -RA SCT041 OVC055 27/24 A2983 RMK AO2
P0010




000
SAGM31 PGUM 190326
MTRGUM
SPECI PGUM 190325Z 14004KT 9SM -RA SCT041 OVC055 27/24 A2983 RMK AO2
P0010





000
SAGM31 PGUM 190307
MTRGUM
SPECI PGUM 190306Z 10008KT 4SM RA BR SCT018 BKN020 OVC055 27/24
A2984 RMK AO2 P0007




000
SAGM31 PGUM 190307
MTRGUM
SPECI PGUM 190306Z 10008KT 4SM RA BR SCT018 BKN020 OVC055 27/24
A2984 RMK AO2 P0007





000
SAGM31 PGUM 190304
MTRGUM
SPECI PGUM 190303Z 09010KT 1 3/4SM +RA BR FEW025 BKN033 OVC055 27/25
A2984 RMK AO2 P0003





000
SAGM31 PGUM 190304
MTRGUM
SPECI PGUM 190303Z 09010KT 1 3/4SM +RA BR FEW025 BKN033 OVC055 27/25
A2984 RMK AO2 P0003




000
SAGM31 PGUM 190255
MTRGUM
METAR PGUM 190254Z 08006KT 5SM -RA BR SCT016 BKN039 OVC047 27/26
A2984 RMK AO2 SLP097 P0030 60057 CB DSNT SW MOV SW T02720256 58016





000
SAGM31 PGUM 190255
MTRGUM
METAR PGUM 190254Z 08006KT 5SM -RA BR SCT016 BKN039 OVC047 27/26
A2984 RMK AO2 SLP097 P0030 60057 CB DSNT SW MOV SW T02720256 58016




000
SAGM31 PGUM 190232
MTRGUM
SPECI PGUM 190231Z 08004KT 9SM -RA SCT018 BKN035 BKN055 27/26 A2984
RMK AO2 CB DSNT SW MOV SW P0027




000
SAGM31 PGUM 190210
MTRGUM
SPECI PGUM 190209Z 00000KT 3SM RA BR FEW012 BKN020 BKN050 27/24
A2985 RMK AO2 CB DSNT SW MOV SW P0025




000
SAGM31 PGUM 190210
MTRGUM
SPECI PGUM 190209Z 00000KT 3SM RA BR FEW012 BKN020 BKN050 27/24
A2985 RMK AO2 CB DSNT SW MOV SW P0025





000
SAGM31 PGUM 190155
MTRGUM
METAR PGUM 190154Z 03003KT 2 1/2SM +RA BR SCT012CB BKN016 BKN025
27/24 A2986 RMK AO2 RAE15B40 SLP103 CB NE-OHD-SW MOV SW P0021
T02670244




000
SAGM31 PGUM 190149
MTRGUM
SPECI PGUM 190148Z 07003KT 2 1/2SM +RA BR SCT012CB BKN016 BKN025
27/24 A2986 RMK AO2 RAE15B40 CB NE-OHD-SW MOV SW P0016




000
SAGM31 PGUM 190149
MTRGUM
SPECI PGUM 190148Z 07003KT 2 1/2SM +RA BR SCT012CB BKN016 BKN025
27/24 A2986 RMK AO2 RAE15B40 CB NE-OHD-SW MOV SW P0016





000
SAGM31 PGUM 190055
MTRGUM
METAR PGUM 190054Z 36004KT 4SM -RA BR SCT018 BKN025 OVC055 27/25
A2988 RMK AO2 SLP110 P0012 T02720250




000
SAGM31 PGUM 190055
MTRGUM
METAR PGUM 190054Z 36004KT 4SM -RA BR SCT018 BKN025 OVC055 27/25
A2988 RMK AO2 SLP110 P0012 T02720250





000
SAGM31 PGUM 190026
MTRGUM
SPECI PGUM 190025Z 00000KT 5SM RA BR BKN022 BKN028 BKN036 27/25
A2988 RMK AO2 P0011





000
SAGM31 PGUM 190026
MTRGUM
SPECI PGUM 190025Z 00000KT 5SM RA BR BKN022 BKN028 BKN036 27/25
A2988 RMK AO2 P0011




000
SAGM31 PGUM 190020
MTRGUM
SPECI PGUM 190019Z 33007KT 1 3/4SM +RA SCT020 BKN025 OVC036 28/25
A2989 RMK AO2 VIS 1V5 P0002




000
SAGM31 PGUM 190020
MTRGUM
SPECI PGUM 190019Z 33007KT 1 3/4SM +RA SCT020 BKN025 OVC036 28/25
A2989 RMK AO2 VIS 1V5 P0002





000
SAGM31 PGUM 182355
MTRGUM
METAR PGUM 182354Z 31007KT 9SM -RA SCT018 BKN025 BKN030 28/26 A2989
RMK AO2 RAB44 SLP113 P0002 60002 T02830256 10300 20256 51001




000
SAGM31 PGUM 182355
MTRGUM
METAR PGUM 182354Z 31007KT 9SM -RA SCT018 BKN025 BKN030 28/26 A2989
RMK AO2 RAB44 SLP113 P0002 60002 T02830256 10300 20256 51001





000
SAGM31 PGUM 182329
MTRGUM
SPECI PGUM 182328Z 04005KT 10SM FEW018 BKN025 BKN046 29/24 A2989 RMK
AO2




000
SAGM31 PGUM 182329
MTRGUM
SPECI PGUM 182328Z 04005KT 10SM FEW018 BKN025 BKN046 29/24 A2989 RMK
AO2





000
SAGM31 PGUM 182255
MTRGUM
METAR PGUM 182254Z 09004KT 10SM SCT017 BKN034 BKN041 29/24 A2989 RMK
AO2 SLP112 T02890244




000
SAGM31 PGUM 182255
MTRGUM
METAR PGUM 182254Z 09004KT 10SM SCT017 BKN034 BKN041 29/24 A2989 RMK
AO2 SLP112 T02890244





000
SAGM31 PGUM 182247
MTRGUM
SPECI PGUM 182246Z 11005KT 10SM SCT017 BKN029 BKN036 30/24 A2989 RMK
AO2 P0001





000
SAGM31 PGUM 182247
MTRGUM
SPECI PGUM 182246Z 11005KT 10SM SCT017 BKN029 BKN036 30/24 A2989 RMK
AO2 P0001




000
SAGM31 PGUM 182155
MTRGUM
METAR PGUM 182154Z 08003KT 10SM FEW037 28/24 A2988 RMK AO2 SLP111
T02830244




000
SAGM31 PGUM 182155
MTRGUM
METAR PGUM 182154Z 08003KT 10SM FEW037 28/24 A2988 RMK AO2 SLP111
T02830244





000
SAGM31 PGUM 182155
MTRGUM
METAR PGUM 182154Z 08003KT 10SM FEW037 28/24 A2988 RMK AO2 SLP111
T02830244




000
SAGM31 PGUM 182155
MTRGUM
METAR PGUM 182154Z 08003KT 10SM FEW037 28/24 A2988 RMK AO2 SLP111
T02830244





000
SAGM31 PGUM 182055
MTRGUM
METAR PGUM 182054Z 00000KT 10SM CLR 27/25 A2986 RMK AO2 SLP105
T02670250 53015




000
SAGM31 PGUM 182055
MTRGUM
METAR PGUM 182054Z 00000KT 10SM CLR 27/25 A2986 RMK AO2 SLP105
T02670250 53015





000
SAGM31 PGUM 181955
MTRGUM
METAR PGUM 181954Z 06004KT 10SM CLR 26/24 A2985 RMK AO2 SLP101
T02610244




000
SAGM31 PGUM 181955
MTRGUM
METAR PGUM 181954Z 06004KT 10SM CLR 26/24 A2985 RMK AO2 SLP101
T02610244





000
SAGM31 PGUM 181955
MTRGUM
METAR PGUM 181954Z 06004KT 10SM CLR 26/24 A2985 RMK AO2 SLP101
T02610244




000
SAGM31 PGUM 181955
MTRGUM
METAR PGUM 181954Z 06004KT 10SM CLR 26/24 A2985 RMK AO2 SLP101
T02610244





000
SAGM31 PGUM 181855
MTRGUM
METAR PGUM 181854Z 05003KT 10SM FEW055 27/24 A2983 RMK AO2 SLP093
T02670244





000
SAGM31 PGUM 181855
MTRGUM
METAR PGUM 181854Z 05003KT 10SM FEW055 27/24 A2983 RMK AO2 SLP093
T02670244




000
SAGM31 PGUM 181755
MTRGUM
METAR PGUM 181754Z 06004KT 10SM CLR 26/24 A2982 RMK AO2 SLP090
T02610244 10267 20256 56005




000
SAGM31 PGUM 181755
MTRGUM
METAR PGUM 181754Z 06004KT 10SM CLR 26/24 A2982 RMK AO2 SLP090
T02610244 10267 20256 56005





000
SAGM31 PGUM 181655
MTRGUM
METAR PGUM 181654Z 00000KT 10SM FEW050 26/24 A2982 RMK AO2 SLP091
T02560244




000
SAGM31 PGUM 181655
MTRGUM
METAR PGUM 181654Z 00000KT 10SM FEW050 26/24 A2982 RMK AO2 SLP091
T02560244




000
SAGM31 PGUM 181655
MTRGUM
METAR PGUM 181654Z 00000KT 10SM FEW050 26/24 A2982 RMK AO2 SLP091
T02560244





000
SAGM31 PGUM 181655
MTRGUM
METAR PGUM 181654Z 00000KT 10SM FEW050 26/24 A2982 RMK AO2 SLP091
T02560244





000
SAGM31 PGUM 181555
MTRGUM
METAR PGUM 181554Z 05003KT 10SM CLR 27/24 A2983 RMK AO2 SLP092
T02670244




000
SAGM31 PGUM 181555
MTRGUM
METAR PGUM 181554Z 05003KT 10SM CLR 27/24 A2983 RMK AO2 SLP092
T02670244





000
SAGM31 PGUM 181555
MTRGUM
METAR PGUM 181554Z 05003KT 10SM CLR 27/24 A2983 RMK AO2 SLP092
T02670244





000
SAGM31 PGUM 181555
MTRGUM
METAR PGUM 181554Z 05003KT 10SM CLR 27/24 A2983 RMK AO2 SLP092
T02670244




000
SAGM31 PGUM 181455
MTRGUM
METAR PGUM 181454Z 03004KT 10SM CLR 27/25 A2984 RMK AO2 SLP095
T02670250 58012




000
SAGM31 PGUM 181455
MTRGUM
METAR PGUM 181454Z 03004KT 10SM CLR 27/25 A2984 RMK AO2 SLP095
T02670250 58012





000
SAGM31 PGUM 181455
MTRGUM
METAR PGUM 181454Z 03004KT 10SM CLR 27/25 A2984 RMK AO2 SLP095
T02670250 58012




000
SAGM31 PGUM 181455
MTRGUM
METAR PGUM 181454Z 03004KT 10SM CLR 27/25 A2984 RMK AO2 SLP095
T02670250 58012





000
SAGM31 PGUM 181355
MTRGUM
METAR PGUM 181354Z 03004KT 10SM FEW020 27/25 A2985 RMK AO2 SLP100
T02670250 403110250




000
SAGM31 PGUM 181355
MTRGUM
METAR PGUM 181354Z 03004KT 10SM FEW020 27/25 A2985 RMK AO2 SLP100
T02670250 403110250





000
SAGM31 PGUM 181255
MTRGUM
METAR PGUM 181254Z 02005KT 10SM FEW020 27/25 A2986 RMK AO2 SLP103
T02670250




000
SAGM31 PGUM 181255
MTRGUM
METAR PGUM 181254Z 02005KT 10SM FEW020 27/25 A2986 RMK AO2 SLP103
T02670250





000
SAGM31 PGUM 181155
MTRGUM
METAR PGUM 181154Z 02005KT 10SM FEW020 27/25 A2987 RMK AO2 SLP107
70010 T02670250 10300 20267 50007




000
SAGM31 PGUM 181155
MTRGUM
METAR PGUM 181154Z 02005KT 10SM FEW020 27/25 A2987 RMK AO2 SLP107
70010 T02670250 10300 20267 50007




000
SAGM31 PGUM 181155
MTRGUM
METAR PGUM 181154Z 02005KT 10SM FEW020 27/25 A2987 RMK AO2 SLP107
70010 T02670250 10300 20267 50007





000
SAGM31 PGUM 181055
MTRGUM
METAR PGUM 181054Z 02005KT 10SM FEW020 27/24 A2987 RMK AO2 SLP108
T02670244




000
SAGM31 PGUM 181055
MTRGUM
METAR PGUM 181054Z 02005KT 10SM FEW020 27/24 A2987 RMK AO2 SLP108
T02670244





000
SAGM31 PGUM 181055
MTRGUM
METAR PGUM 181054Z 02005KT 10SM FEW020 27/24 A2987 RMK AO2 SLP108
T02670244





000
SAGM31 PGUM 181055
MTRGUM
METAR PGUM 181054Z 02005KT 10SM FEW020 27/24 A2987 RMK AO2 SLP108
T02670244




000
SAGM31 PGUM 180955
MTRGUM
METAR PGUM 180954Z 02004KT 10SM FEW020 27/24 A2987 RMK AO2 SLP105
T02720244





000
SAGM31 PGUM 180955
MTRGUM
METAR PGUM 180954Z 02004KT 10SM FEW020 27/24 A2987 RMK AO2 SLP105
T02720244




000
SAGM31 PGUM 180955
MTRGUM
METAR PGUM 180954Z 02004KT 10SM FEW020 27/24 A2987 RMK AO2 SLP105
T02720244





000
SAGM31 PGUM 180955
MTRGUM
METAR PGUM 180954Z 02004KT 10SM FEW020 27/24 A2987 RMK AO2 SLP105
T02720244




000
SAGM31 PGUM 180855
MTRGUM
METAR PGUM 180854Z 03004KT 10SM FEW020 28/24 A2985 RMK AO2 SLP100
T02780244 53018





000
SAGM31 PGUM 180855
MTRGUM
METAR PGUM 180854Z 03004KT 10SM FEW020 28/24 A2985 RMK AO2 SLP100
T02780244 53018




000
SAGM31 PGUM 180755
MTRGUM
METAR PGUM 180754Z 06006KT 10SM FEW022 29/24 A2983 RMK AO2 SLP092 CB
DSNT W MOV W T02890244





000
SAGM31 PGUM 180755
MTRGUM
METAR PGUM 180754Z 06006KT 10SM FEW022 29/24 A2983 RMK AO2 SLP092 CB
DSNT W MOV W T02890244




000
SAGM31 PGUM 180755
MTRGUM
METAR PGUM 180754Z 06006KT 10SM FEW022 29/24 A2983 RMK AO2 SLP092 CB
DSNT W MOV W T02890244




000
SAGM31 PGUM 180755
MTRGUM
METAR PGUM 180754Z 06006KT 10SM FEW022 29/24 A2983 RMK AO2 SLP092 CB
DSNT W MOV W T02890244





    US Dept of Commerce
    National Oceanic and Atmospheric Administration
    National Weather Service
    1325 East West Highway
    Silver Spring, MD 20910
    Page Author: NWS Internet Services Team
Disclaimer
Information Quality
Credits
Glossary
Privacy Policy
Freedom of Information Act (FOIA)
About Us
Career Opportunities